EW8324 Weather Reports


time (UTC)temp
C
wind
direction
speed
KPH
gust
KPH
rain 1hr
cm
rain 24hr
cm
rain mn
cm
humidity
%
barometer
mb
20260502214348 24 0 0.0 6.4 0.08 0.38 1.52 44 1014.0
20260502213849 24 343 0.0 6.4 0.08 0.38 1.52 45 1014.0
20260502213346 24 80 0.0 19.3 0.08 0.38 1.52 45 1014.0
20260502213113 23 243 0.0 19.3 0.08 0.36 1.50 43 1014.0
20260502212956 23 243 0.0 19.3 0.08 0.36 1.50 43 1014.0
20260502212341 23 130 0.0 8.0 0.08 0.36 1.50 44 1014.0
20260502211843 24 329 1.6 8.0 0.08 0.36 1.50 44 1013.9
20260502211602 24 106 1.6 6.4 0.10 0.36 1.50 45 1014.1
20260502211450 24 106 1.6 6.4 0.10 0.36 1.50 45 1014.1
20260502211321 24 185 1.6 6.4 0.10 0.36 1.50 45 1014.2
20260502210959 24 185 1.6 6.4 0.10 0.36 1.50 45 1014.2
20260502210609 24 336 1.6 6.4 0.08 0.33 1.47 45 1014.2
20260502210454 24 336 1.6 6.4 0.08 0.33 1.47 45 1014.2
20260502205849 24 337 0.0 14.5 0.10 0.33 1.47 45 1014.3
20260502205346 24 333 1.6 14.5 0.10 0.33 1.47 45 1014.3
20260502204848 24 298 0.0 3.2 0.08 0.30 1.45 45 1014.2
20260502204346 24 80 0.0 8.0 0.08 0.30 1.45 45 1014.3
20260502203847 24 35 1.6 8.0 0.10 0.30 1.45 46 1014.3
20260502203608 24 193 1.6 17.7 0.10 0.30 1.45 48 1014.5
20260502203454 24 193 1.6 17.7 0.10 0.30 1.45 48 1014.5
20260502202846 24 42 3.2 17.7 0.08 0.28 1.42 45 1014.3
20260502202345 24 344 0.0 6.4 0.10 0.28 1.42 43 1014.5
20260502201848 24 104 0.0 11.3 0.10 0.28 1.42 43 1014.4
20260502201345 24 331 4.8 11.3 0.10 0.25 1.40 43 1014.5
20260502200847 25 185 0.0 0.0 0.10 0.25 1.40 43 1014.5
20260502200345 25 73 0.0 1.6 0.10 0.25 1.40 43 1014.7
20260502195849 25 0 0.0 4.8 0.10 0.23 1.37 44 1014.6
20260502195344 24 102 0.0 9.7 0.10 0.23 1.37 43 1014.6
20260502194840 24 338 0.0 9.7 0.10 0.23 1.37 44 1014.8
20260502194339 25 173 1.6 6.4 0.13 0.23 1.37 43 1014.9
20260502194103 25 96 1.6 4.8 0.10 0.20 1.35 44 1015.0
20260502193955 25 96 1.6 4.8 0.10 0.20 1.35 44 1015.0
20260502193345 25 34 0.0 0.0 0.10 0.20 1.35 46 1015.1
20260502192846 25 168 0.0 4.8 0.13 0.20 1.35 46 1015.0
20260502192344 25 299 0.0 4.8 0.10 0.18 1.32 47 1015.1
20260502191845 25 145 0.0 4.8 0.10 0.18 1.32 48 1015.2
20260502191341 25 65 1.6 4.8 0.10 0.15 1.30 46 1015.2
20260502190841 25 4 0.0 0.0 0.10 0.15 1.30 49 1015.3
20260502190558 25 200 0.0 0.0 0.10 0.15 1.30 45 1015.3
20260502190445 25 200 0.0 0.0 0.10 0.15 1.30 45 1015.3
20260502185843 -17 0.0 1.6 0.10 0.13 1.27 1015.4
20260502185343 25 0 0.0 1.6 0.10 0.13 1.27 49 1015.4
20260502184844 25 316 0.0 0.0 0.13 0.13 1.27 49 1015.4
20260502184342 25 261 0.0 4.8 0.10 0.10 1.24 47 1015.6
20260502183845 25 25 0.0 4.8 0.10 0.10 1.24 47 1015.6
20260502183549 24 103 0.0 0.0 0.08 0.08 1.22 49 1015.7
20260502183441 25 300 0.0 0.0 0.10 0.10 1.24 47 1015.6
20260502182952 24 103 0.0 0.0 0.08 0.08 1.22 49 1015.7
20260502182342 24 173 0.0 0.0 0.08 0.08 1.22 48 1015.7
20260502181844 24 154 0.0 0.0 0.08 0.08 1.22 50 1015.7
20260502181559 24 51 0.0 0.0 0.05 0.05 1.19 48 1016.0
20260502181449 24 51 0.0 0.0 0.05 0.05 1.19 48 1016.0
20260502180843 23 252 0.0 3.2 0.05 0.05 1.19 49 1015.8
20260502180342 24 200 0.0 3.2 0.05 0.05 1.19 52 1016.0